Printer-friendly version

IAU Minor Planet Center

Minor Planet Center

MPEC 2000-D31: 2000 CT101

The following Minor Planet Electronic Circular may be linked-to from your own Web pages, but must not otherwise be redistributed electronically.


Read MPEC 2000-D30 Read MPEC 2000-D32


M.P.E.C. 2000-D31                                Issued 2000 Feb. 27, 17:41 UT

     The Minor Planet Electronic Circulars contain information on unusual
         minor planets and routine data on comets.  They are published
   on behalf of Commission 20 of the International Astronomical Union by the
          Minor Planet Center, Smithsonian Astrophysical Observatory,
                          Cambridge, MA 02138, U.S.A.

             Prepared using the Tamkin Foundation Computer Network

             BMARSDEN@CFA.HARVARD.EDU or GWILLIAMS@CFA.HARVARD.EDU
          URL http://cfa-www.harvard.edu/iau/mpc.html  ISSN 1523-6714

                                  2000 CT101

Observations:
     K00CA1T* C2000 02 15.39357 13 17 39.49 +42 26 43.7          17.7        704
     K00CA1T  C2000 02 15.40742 13 17 36.83 +42 28 09.3          17.4        704
     K00CA1T  C2000 02 15.42124 13 17 34.32 +42 29 34.0          17.5        704
     K00CA1T  C2000 02 15.43508 13 17 31.52 +42 31 00.0          17.2        704
     K00CA1T  C2000 02 16.31836 13 15 11.84 +43 56 18.7                      651
     K00CA1T  C2000 02 16.31983 13 15 11.68 +43 56 27.9          17.4 V      651
     K00CA1T  C2000 02 16.32483 13 15 10.73 +43 56 55.3                      651
     K00CA1T  C2000 02 26.36347 12 47 59.54 +53 47 07.9          18.8        704
     K00CA1T  C2000 02 26.37680 12 47 57.03 +53 47 36.0          19.7        704
     K00CA1T  C2000 02 26.38998 12 47 54.65 +53 48 01.8          19.8        704
     K00CA1T  C2000 02 26.40357 12 47 52.34 +53 48 31.7          20.1        704
     K00CA1T  C2000 02 26.41675 12 47 49.78 +53 48 58.7          19.3        704
     K00CA1T  C2000 02 27.04343 12 46 09.56 +54 09 36.8          18.8 R      046
     K00CA1T  C2000 02 27.04515 12 46 09.39 +54 09 39.8                      046
     K00CA1T  C2000 02 27.04615 12 46 09.18 +54 09 42.2                      046
     K00CA1T  C2000 02 27.04714 12 46 09.02 +54 09 43.5                      046
     K00CA1T  C2000 02 27.04872 12 46 08.81 +54 09 47.0                      046
     K00CA1T  C2000 02 27.18399 12 45 44.75 +54 13 59.1                      557
     K00CA1T  C2000 02 27.18598 12 45 44.44 +54 14 02.9                      557
     K00CA1T  C2000 02 27.18796 12 45 44.13 +54 14 06.2          19.3 V      557
     K00CA1T  C2000 02 27.28867 12 45 32.49 +54 17 27.9                      651
     K00CA1T  C2000 02 27.29015 12 45 32.25 +54 17 31.0                      651
     K00CA1T  C2000 02 27.29152 12 45 31.97 +54 17 33.5          19.9 V      651

Observer details:
046 Klet.  Observers J. Ticha, M. Tichy.  0.57-m f/5.2 reflector + CCD.
557 Ondrejov.  Observer L. Sarounova.  0.65-m f/3.6 reflector + CCD.
651 Grasslands Observatory, Tucson.  Observer J. E. McGaha.  0.62-m f/5.1
    reflector + CCD.
704 Lincoln Laboratory ETS, New Mexico.  Observers M. Blythe, F. Shelly,
    M. Bezpalko, M. Elowitz, R. Huber.  Measurers J. Stuart, H. Viggh,
    R. Sayer, J. B. Evans.  1.0-m f/2.15 reflector + CCD.

Orbital elements:
2000 CT101                                                           PHA 0.001A
Epoch 2000 Feb. 6.0 TT = JDT 2451580.5                  Williams
M  37.36343              (2000.0)            P               Q
n   0.66153790     Peri.  292.37568     +0.32000404     -0.90582564
a   1.3044664      Node   135.70925     +0.94736315     +0.30283867
e   0.3575445      Incl.   23.42680     +0.01002396     +0.29625774
P   1.49           H   20.4           G   0.15
From 23 observations 2000 Feb. 15-27.

Ephemeris:
2000 CT101               a,e,i = 1.30, 0.36, 23                  q = 0.8381
Date    TT    R. A. (2000) Decl.     Delta      r     Elong.  Phase     V
2000 02 26    12 48.96   +53 34.1    0.227    1.144   127.9    43.1    19.1
2000 03 02    12 35.73   +55 53.0    0.268    1.172   127.2    42.3    19.5
2000 03 07    12 23.28   +57 08.6    0.309    1.201   126.2    41.8    19.9
2000 03 12    12 12.12   +57 38.4    0.351    1.229   125.0    41.5    20.2
2000 03 17    12 02.62   +57 34.2    0.395    1.257   123.7    41.2    20.5
2000 03 22    11 54.92   +57 04.4    0.439    1.285   122.2    41.0    20.8
2000 03 27    11 49.00   +56 15.3    0.483    1.312   120.7    40.9    21.0
2000 04 01    11 44.79   +55 11.0    0.529    1.338   119.1    40.7    21.3
2000 04 06    11 42.17   +53 54.8    0.575    1.364   117.4    40.6    21.5
2000 04 11    11 41.00   +52 29.5    0.622    1.389   115.6    40.6    21.7
2000 04 16    11 41.11   +50 57.3    0.670    1.414   113.9    40.5    21.9
2000 04 21    11 42.30   +49 19.9    0.718    1.438   112.1    40.4    22.1
2000 04 26    11 44.42   +47 38.6    0.767    1.461   110.2    40.3    22.2

Gareth V. Williams           (C) Copyright 2000 MPC           M.P.E.C. 2000-D31

Read MPEC 2000-D30 Read MPEC 2000-D32


Our Web policy. Index to the CBAT/MPC/ICQ pages.


Valid HTML 4.01!